Theta_e
312 313 313 312 312 313 313 312 313 313 313 312 313 313 313 314 314 314 314 314 314 314 314 314 315 315 316 316 316 315 314 312 311 311 311 308 312 320 322 322 325 326 326 315 315 315 311 310 308 308 306 306 305 303 307 308 309 308 302 300 298 301 300 304 304 306 309 307 309 310 311 309 308 312 314 317 315 315 315 315 323 326 327 328 330 333 341 341
312 312 312 312 312 312 312 312 312 312 312 312 312 313 313 314 314 314 314 314 314 315 314 314 315 315 315 315 315 315 313 311 310 311 308 317 319 322 322 322 323 325 323 312 314 309 304 303 305 307 305 301 307 302 307 304 309 303 301 301 297 301 304 308 308 310 308 307 310 312 312 310 309 312 314 311 311 313 311 314 321 322 324 328 328 335 341 341
312 312 312 312 312 312 312 312 312 312 312 313 313 313 313 313 314 314 314 315 315 315 315 315 315 315 315 315 315 314 312 311 311 307 310 322 322 322 321 322 323 324 316 310 312 312 306 305 305 305 305 302 304 301 305 303 305 304 301 298 300 305 306 308 309 309 312 312 310 311 312 312 313 314 316 310 310 311 310 317 318 320 322 325 327 337 341 341
312 311 312 312 312 312 312 312 311 312 312 312 313 313 313 313 314 314 314 315 315 315 316 315 315 315 315 315 315 315 312 309 305 308 312 320 322 323 320 322 323 321 312 311 312 310 309 307 305 304 302 300 303 304 301 303 301 303 301 298 301 305 304 306 309 309 310 311 310 310 312 311 313 314 313 311 309 309 311 313 320 321 324 326 332 337 341 340
312 312 312 312 312 312 311 311 311 311 312 312 312 313 313 313 313 314 314 315 315 315 316 316 315 315 315 315 314 314 309 303 303 310 311 319 321 323 323 324 325 315 311 311 311 309 307 306 305 303 300 297 299 300 301 303 305 303 300 302 303 304 303 307 309 310 309 310 309 309 307 308 313 313 311 310 307 307 311 314 319 324 330 333 339 341 341 338
311 312 312 312 312 312 312 312 311 311 311 312 312 313 313 313 313 314 314 314 315 315 316 316 316 315 316 315 313 312 307 292 306 308 321 318 322 322 325 327 327 316 310 309 309 308 306 305 303 299 298 298 297 296 300 302 305 297 301 302 303 304 303 306 307 309 310 309 308 307 309 311 310 309 311 311 311 312 316 316 316 326 335 339 340 340 338 337
311 311 311 311 311 311 311 311 311 311 311 311 312 313 313 313 313 314 314 315 315 316 316 316 316 317 316 314 314 310 307 303 309 311 322 323 322 324 322 325 327 313 311 308 307 305 305 304 303 300 299 298 298 298 300 300 303 300 297 302 302 304 303 306 306 307 307 308 308 310 311 308 309 305 311 310 313 315 316 316 316 322 332 339 337 338 336 335
311 311 311 311 311 311 311 311 311 311 311 312 312 312 312 313 314 314 314 315 315 315 316 316 316 316 315 310 310 308 306 302 307 313 325 328 318 321 324 315 312 311 308 305 305 304 303 301 299 302 299 297 299 299 300 299 300 297 298 301 302 303 304 305 305 306 306 307 308 308 307 308 309 308 311 309 312 315 316 316 315 320 330 334 335 336 336 337
311 311 311 311 311 310 311 311 311 311 311 312 312 312 313 314 314 314 314 315 315 315 316 316 316 316 315 311 309 307 301 307 311 312 315 314 311 311 311 309 312 309 307 306 306 305 303 300 300 301 296 297 301 298 300 298 295 300 299 301 302 302 303 304 305 305 305 306 307 306 305 307 309 311 308 310 312 315 316 315 315 323 322 331 332 335 335 336
310 311 311 310 311 310 310 311 311 311 312 312 313 313 313 313 313 313 314 314 315 316 316 316 316 316 312 310 310 304 302 311 312 313 312 311 311 310 310 311 310 308 306 306 307 305 302 302 302 303 302 299 300 298 300 298 296 301 300 301 301 302 302 304 303 304 305 305 306 303 303 305 308 308 303 313 313 314 314 315 315 320 319 328 329 334 336 336
311 310 311 311 310 310 311 311 311 311 312 313 313 313 313 313 314 314 314 315 315 316 316 316 317 314 310 312 306 298 308 311 312 312 311 311 311 310 308 309 310 308 307 306 305 306 305 304 304 303 301 297 299 297 297 298 301 300 300 299 299 300 300 302 303 301 303 303 306 305 303 305 307 306 304 309 316 314 312 313 314 315 317 323 329 333 334 336
310 311 311 310 310 310 311 311 311 312 312 313 313 313 313 313 313 314 314 314 316 316 316 316 315 312 311 310 306 300 308 310 311 311 311 311 310 309 310 310 309 308 307 305 306 308 307 306 305 302 295 302 295 299 298 302 300 299 299 294 296 298 297 300 299 301 303 301 305 305 303 301 302 301 307 310 312 317 314 312 313 313 313 328 329 332 334 334
310 310 310 310 310 310 310 311 312 312 312 313 313 313 313 313 313 313 314 315 315 315 317 316 315 313 311 309 303 308 310 311 311 311 312 311 310 311 310 309 309 309 308 306 305 308 308 306 305 300 302 299 298 293 299 301 299 299 298 295 294 294 294 299 300 300 300 301 304 304 292 296 301 305 308 312 312 313 313 311 312 313 313 315 328 332 330 336
310 310 310 310 310 310 311 311 312 312 312 312 313 313 313 313 313 314 315 314 316 315 315 316 314 312 311 305 306 310 311 313 312 311 309 310 309 309 310 311 310 309 309 307 307 308 307 308 305 303 304 299 296 303 298 298 299 293 296 296 291 290 290 297 298 299 298 302 303 304 292 296 301 304 308 311 314 311 309 311 312 313 313 318 326 326 330 338
310 310 310 310 310 310 311 311 312 312 312 312 313 312 312 312 314 315 315 314 315 316 315 315 313 310 310 303 309 311 324 314 310 308 310 308 307 306 308 309 308 309 308 307 306 307 307 306 304 299 297 302 301 297 294 294 294 294 290 288 291 289 291 296 299 299 294 299 302 301 293 295 301 304 307 309 311 311 310 311 312 312 313 317 323 327 334 336
310 310 310 310 310 310 311 311 311 312 312 312 312 312 312 313 314 315 313 314 316 313 316 311 314 313 307 302 305 319 311 307 307 311 312 310 308 305 307 306 307 307 307 306 308 306 307 305 300 300 299 300 296 294 292 291 291 293 290 288 288 290 290 292 297 299 299 298 300 298 292 297 298 304 307 309 308 310 310 311 312 313 316 315 323 328 329 329
310 310 310 310 310 310 311 311 311 312 312 312 312 312 312 313 314 314 314 315 313 315 313 310 312 313 300 307 311 305 306 309 313 312 311 312 308 307 306 305 304 305 308 307 305 305 304 301 302 300 300 295 295 294 288 287 287 290 292 288 291 289 290 289 296 299 299 298 294 298 295 296 299 303 305 307 309 308 308 310 310 312 313 315 320 328 327 327
309 309 310 310 310 310 310 311 311 312 312 311 310 310 310 313 313 310 311 312 313 315 316 317 315 307 302 308 301 303 309 309 309 310 310 310 309 306 305 303 304 304 304 302 305 300 302 297 300 293 296 295 295 293 288 284 287 288 290 290 289 292 292 291 291 295 298 298 295 296 295 296 298 301 303 305 307 307 306 308 308 309 310 312 314 319 325 325
309 309 309 309 310 310 310 311 311 311 311 310 310 312 313 311 311 312 311 314 311 309 306 304 304 295 293 302 307 307 308 310 312 310 307 309 309 308 307 306 304 301 298 297 298 299 300 297 298 294 290 292 293 293 291 291 293 291 291 290 290 288 291 291 295 298 297 295 294 295 293 295 297 299 301 304 307 305 304 307 309 309 309 310 312 314 314 323
309 309 309 309 310 310 310 311 311 311 311 308 313 317 317 310 309 307 312 311 308 304 302 303 305 304 305 305 305 309 312 312 306 308 306 309 305 304 303 304 303 302 298 294 297 298 300 292 291 291 292 294 294 295 294 294 294 293 292 291 290 290 291 294 294 298 299 295 294 294 296 296 297 299 301 302 304 304 305 305 305 307 308 309 309 312 315 317
309 309 309 309 309 310 310 310 310 310 309 311 312 310 301 302 297 297 302 304 307 305 304 304 304 303 303 306 308 307 302 305 308 306 308 310 306 303 300 301 298 295 297 298 297 300 298 291 290 293 295 295 295 296 295 294 294 292 290 289 288 290 288 293 293 297 299 295 293 296 295 296 297 299 301 303 303 301 303 304 305 306 307 310 311 312 314 318
308 308 309 309 310 310 310 310 309 310 309 312 313 307 307 307 309 310 305 298 306 307 306 305 306 305 309 308 310 309 307 302 304 307 310 309 304 298 300 299 296 293 297 298 297 294 292 290 294 296 299 298 296 295 295 292 291 291 289 288 287 288 291 293 294 296 296 295 293 296 293 296 298 300 302 302 303 304 305 305 307 307 307 310 311 312 314 315
308 308 309 309 309 309 309 309 309 308 309 314 310 308 307 312 314 314 310 304 301 308 306 304 303 303 304 308 309 310 302 301 297 304 305 307 302 300 300 296 295 295 296 296 292 292 290 293 297 298 298 295 295 294 294 293 292 290 289 288 286 290 288 286 292 294 296 295 292 295 293 294 299 300 300 303 303 304 308 306 307 310 309 308 310 312 313 313
308 308 309 309 309 309 309 308 307 311 316 315 311 309 313 314 315 313 307 299 298 305 305 306 305 305 304 302 309 307 303 303 303 301 308 306 300 302 299 298 295 295 293 295 294 292 291 295 299 298 297 296 293 294 293 291 289 291 291 289 288 289 290 290 290 293 295 296 296 294 291 291 294 295 296 300 303 303 304 305 306 307 309 310 312 313 315 313
307 308 308 309 309 309 309 307 312 313 317 315 311 313 315 315 315 313 304 303 301 301 309 306 307 306 307 312 310 303 306 306 306 308 308 305 302 300 298 301 298 294 295 296 296 294 294 298 300 297 297 296 294 292 292 292 288 289 291 291 291 291 290 291 292 290 289 288 293 292 285 285 291 293 294 298 300 300 303 302 304 305 306 308 309 312 316 315
307 308 308 309 309 308 308 310 313 316 315 311 311 314 316 315 315 313 306 298 292 298 303 297 307 300 310 304 307 306 307 300 307 307 308 307 308 301 300 297 298 292 296 296 294 294 293 298 297 295 294 294 294 292 294 294 289 288 289 294 293 292 292 291 290 289 284 283 291 294 284 283 291 291 293 295 297 298 300 300 302 305 306 306 308 311 313 317
307 307 308 309 308 308 311 307 316 318 308 310 315 317 315 316 316 312 303 295 289 296 297 303 303 303 309 305 305 306 292 297 307 309 307 308 302 307 296 296 299 300 300 299 294 290 297 297 296 296 295 293 292 290 294 294 291 287 294 294 293 291 290 290 290 289 287 292 292 293 291 285 285 290 295 296 295 295 296 298 301 303 306 305 308 311 314 314
308 308 308 308 308 308 309 311 315 313 309 313 318 315 316 316 314 311 298 286 283 302 296 301 304 311 307 306 307 301 301 305 299 302 307 307 305 303 299 296 296 296 298 296 286 295 297 295 295 294 294 293 292 295 296 296 292 291 295 295 293 292 291 291 290 288 289 287 284 288 291 284 284 290 295 296 293 294 294 296 299 303 305 307 307 309 311 314
307 308 308 308 308 308 311 311 314 312 315 317 317 316 317 316 311 302 293 283 297 298 309 298 311 306 304 306 303 303 303 305 296 304 308 308 309 305 297 299 299 298 300 298 291 294 297 298 297 297 295 292 295 297 297 296 291 294 296 296 294 294 293 291 289 288 287 285 281 286 289 283 283 289 291 295 293 292 294 296 299 302 305 306 309 309 310 311
307 308 308 308 308 315 312 314 313 317 317 317 317 317 317 313 303 294 286 280 299 291 301 302 301 297 302 298 299 303 300 302 302 304 305 303 305 306 303 306 299 298 296 299 297 297 299 302 303 298 295 297 297 298 298 297 297 298 295 293 291 291 290 291 289 288 285 279 282 286 289 287 281 287 290 290 292 295 296 297 298 301 303 306 308 311 312 311
307 307 307 308 310 315 315 312 314 316 318 318 318 316 313 307 295 288 281 290 299 298 302 300 297 303 297 296 294 301 300 300 301 301 299 304 302 301 302 298 302 296 296 296 295 297 298 297 297 301 302 300 300 296 299 298 297 295 292 290 289 287 289 287 286 287 279 277 283 287 287 288 280 285 291 295 296 297 298 296 297 299 301 303 307 307 309 310
307 307 307 309 313 314 309 311 315 317 318 319 317 311 305 293 301 286 284 303 289 293 295 295 299 298 297 299 297 297 296 299 301 299 297 297 298 298 298 294 295 288 288 290 289 295 293 294 298 299 302 298 297 294 295 297 296 293 291 289 283 281 281 277 281 276 277 277 284 288 288 284 283 288 292 295 296 297 299 300 299 300 300 302 304 306 308 309
306 306 307 310 311 312 315 317 318 320 320 317 313 309 300 290 283 291 291 295 289 297 295 301 297 297 297 296 295 297 300 294 300 300 299 299 297 297 299 297 298 293 284 291 289 289 291 297 297 297 298 299 297 289 289 288 292 292 287 286 282 277 276 273 276 279 279 283 287 286 289 283 287 291 294 294 296 298 300 301 301 301 303 303 303 305 307 309
305 306 310 316 317 317 318 320 321 320 316 315 309 304 297 286 286 297 292 295 293 300 299 297 297 298 297 292 295 297 292 297 298 297 298 296 295 294 295 298 298 295 294 291 286 288 283 285 291 294 290 298 295 293 292 290 291 291 293 287 284 281 276 272 277 274 276 279 283 288 283 281 282 286 295 297 298 299 300 302 302 303 303 307 305 305 305 306
305 309 314 317 319 320 322 319 320 320 317 312 306 301 287 287 293 289 291 294 296 298 295 299 296 295 294 295 297 297 297 292 298 297 295 294 291 294 292 294 298 297 295 287 291 289 288 287 293 298 297 298 295 297 297 293 291 292 292 292 286 283 287 277 280 280 279 279 279 282 281 286 285 294 297 298 299 299 299 300 302 302 302 303 304 305 306 306
308 317 319 318 318 316 318 317 319 319 313 308 301 291 287 293 289 295 293 300 298 294 295 297 296 291 291 291 295 295 300 294 296 295 294 295 295 293 296 296 295 298 293 288 291 285 288 286 296 297 299 297 296 297 297 297 282 290 290 285 286 293 288 283 283 285 284 281 277 285 283 286 292 293 295 296 297 298 298 299 299 300 301 305 304 305 308 308
315 320 317 319 316 314 315 316 317 315 312 306 296 289 295 296 299 298 299 296 297 298 295 286 289 289 287 287 290 294 295 297 295 294 289 296 293 295 295 296 299 298 298 295 290 294 285 286 294 294 292 297 298 297 297 297 297 292 285 288 294 295 292 286 278 281 279 275 277 283 281 283 284 281 294 295 294 296 298 298 299 300 301 301 304 309 307 307
312 316 316 317 316 314 315 315 316 314 310 305 292 294 299 294 302 299 300 299 299 298 292 289 290 295 288 288 289 291 295 291 291 293 289 294 288 298 295 295 299 298 298 299 291 292 293 283 290 295 294 296 298 297 294 297 298 292 290 297 286 281 279 284 282 273 274 274 276 281 284 283 285 285 290 290 292 294 296 298 298 299 300 300 302 304 305 305
313 314 309 310 314 314 315 316 313 308 305 300 293 292 297 298 300 298 302 301 300 297 289 292 289 293 292 288 291 293 293 288 292 291 287 292 287 296 295 297 296 299 299 298 294 294 295 284 286 295 293 295 295 294 285 290 296 297 297 292 294 289 284 280 282 283 281 275 275 277 281 279 287 288 291 291 293 295 296 297 298 299 300 301 302 302 303 304
314 312 308 314 316 317 317 314 310 306 303 293 296 296 299 295 297 302 302 300 296 294 293 293 295 290 293 292 293 290 293 292 291 290 291 293 291 299 296 299 296 297 299 299 295 296 289 293 281 290 296 294 287 291 288 290 287 289 289 288 289 289 291 288 287 283 280 278 277 276 275 281 288 292 292 293 295 295 297 297 299 300 300 301 302 304 304 304
316 309 308 316 315 318 317 314 306 300 300 301 301 297 299 295 299 301 302 303 300 303 297 295 294 290 292 291 290 294 291 292 292 290 292 292 292 288 298 298 299 296 299 297 295 296 288 290 283 287 288 288 289 295 294 294 294 291 289 287 289 286 282 279 278 287 285 281 277 277 275 283 290 295 294 294 296 297 298 298 298 299 301 302 303 304 309 308
310 304 307 318 319 319 312 304 302 305 302 297 296 300 297 301 300 299 300 301 301 298 302 297 298 296 294 293 293 292 292 291 292 292 293 290 295 294 297 301 300 300 296 292 293 297 295 292 288 284 287 288 292 295 298 298 297 295 293 289 292 290 287 282 276 280 284 284 285 283 279 281 293 295 295 295 296 296 297 297 298 300 301 302 305 305 307 309
308 306 318 321 320 317 309 300 303 298 299 301 304 304 303 301 300 301 298 299 297 301 298 297 295 294 296 294 294 293 293 290 292 291 293 294 294 297 300 301 302 299 299 295 297 298 297 288 285 286 290 293 296 297 299 297 296 294 293 294 292 287 288 286 285 286 282 283 281 281 278 282 293 296 296 296 297 297 298 299 298 300 301 303 304 305 306 310
309 309 312 318 322 317 305 293 294 296 300 302 302 302 303 302 301 298 298 298 297 296 296 295 297 299 294 298 295 292 295 287 293 293 292 295 294 301 301 301 301 297 296 295 292 297 287 289 286 282 283 286 289 293 293 295 295 291 290 293 293 293 291 290 289 289 282 283 284 280 275 282 293 297 297 296 296 296 297 298 299 299 303 304 304 305 307 309
309 314 310 312 316 315 301 303 299 297 299 298 299 298 300 301 302 301 298 298 300 298 296 295 297 297 296 298 295 296 296 293 290 296 295 295 295 301 301 302 302 299 301 303 299 300 290 287 286 280 277 275 276 277 280 283 286 290 293 292 293 292 290 288 283 284 280 284 285 282 280 287 292 295 295 297 296 296 297 298 300 300 301 302 304 305 309 310
306 296 305 306 309 309 307 308 305 300 298 298 294 298 299 298 301 303 300 300 300 299 298 298 298 299 296 296 293 293 293 296 293 292 293 293 296 299 301 302 301 301 302 302 302 299 290 292 288 286 283 281 283 286 292 292 288 285 289 291 291 292 293 291 288 284 281 284 283 286 286 286 288 291 292 294 296 296 297 298 298 298 301 303 306 306 308 309
311 300 298 295 304 306 303 305 302 302 297 301 293 298 296 298 299 300 303 296 300 298 299 298 297 294 294 294 292 292 293 293 296 295 294 294 297 298 301 301 301 303 303 300 302 300 293 287 288 286 286 287 289 288 291 290 286 288 288 289 291 292 291 289 285 283 289 285 280 287 289 287 288 292 294 294 296 296 297 298 299 300 301 302 304 306 308 306
300 303 307 305 298 296 297 298 303 301 302 302 298 301 298 297 297 294 300 301 301 302 294 296 297 297 296 294 293 289 291 292 294 290 295 296 296 297 296 300 300 303 302 300 301 296 291 286 290 291 287 289 291 289 290 290 289 290 290 290 290 291 291 288 288 289 289 284 282 288 290 288 289 292 295 296 297 297 297 299 301 301 301 303 303 303 304 305
307 305 307 309 300 303 301 302 304 301 300 301 299 300 297 297 295 298 298 298 299 298 300 289 293 296 297 297 294 290 292 288 287 294 294 294 294 294 293 297 301 301 301 300 297 299 294 288 291 291 288 290 291 292 293 291 291 292 292 292 293 291 291 293 291 291 290 289 290 290 290 290 292 293 295 297 299 299 299 301 301 300 300 302 301 302 303 304
302 301 299 305 305 304 303 303 303 301 298 301 294 298 298 297 296 298 299 298 293 296 300 295 295 297 297 296 295 292 294 294 293 290 296 295 293 295 294 295 295 300 300 297 298 299 293 288 292 291 288 287 291 292 293 293 292 290 292 292 292 292 292 292 292 292 292 291 292 291 290 289 295 297 300 300 302 300 300 299 300 301 301 303 303 301 302 304
307 310 307 301 298 301 302 302 300 299 297 298 295 298 298 298 297 299 298 302 298 296 297 295 297 296 297 297 295 293 297 297 296 296 296 296 291 297 294 295 298 294 297 296 297 296 296 290 293 291 285 286 291 291 290 293 293 290 290 289 290 290 288 290 289 292 291 288 290 290 288 289 295 299 300 300 300 300 300 300 301 301 303 304 304 303 303 306
309 311 311 305 297 300 299 303 302 299 294 299 298 298 297 298 299 299 293 301 302 302 300 298 298 296 295 295 293 297 299 298 298 298 299 299 300 300 301 300 299 296 296 296 298 294 295 293 289 288 285 285 291 292 291 291 290 286 285 288 290 291 292 292 293 294 293 294 289 286 289 295 298 299 297 298 298 300 301 301 303 302 302 304 304 303 305 305
Wind_Speed
18 18 18 18 18 18 18 18 18 18 18 18 18 19 19 19 19 18 18 17 18 18 19 19 19 20 20 19 19 19 18 15 16 14 5 5 3 4 5 7 9 11 12 12 13 12 12 12 13 12 11 10 10 13 12 16 12 12 14 15 18 16 21 17 19 18 18 20 22 25 24 24 24 20 16 11 16 18 20 10 10 14 12 12 12 14 17 17
18 18 18 18 18 18 18 18 18 18 19 19 19 19 20 19 19 18 18 18 18 19 19 19 19 19 20 19 19 17 17 14 14 13 7 3 1 5 8 10 11 11 11 11 11 10 8 8 8 9 12 11 10 12 13 12 13 15 13 15 18 18 18 18 18 22 19 21 22 22 22 24 25 26 16 18 16 16 20 9 14 14 14 12 11 16 19 19
18 18 18 18 19 18 18 18 18 19 19 19 19 19 20 20 20 20 20 19 19 18 19 19 19 19 20 18 16 16 15 14 12 3 5 1 5 7 7 9 10 11 9 11 12 11 10 11 11 10 8 10 11 13 15 13 15 17 15 17 19 19 19 21 21 21 20 21 21 21 19 21 22 21 16 22 23 22 20 7 12 16 16 13 15 17 18 17
18 18 18 18 18 18 18 18 19 19 18 19 19 20 19 20 21 21 22 22 20 20 19 19 18 18 19 18 15 15 12 13 6 7 5 3 3 3 5 6 11 11 11 12 13 12 10 10 10 9 9 9 9 12 13 13 13 12 17 18 19 18 20 21 23 23 23 23 22 22 20 21 19 17 15 18 24 24 21 18 13 16 18 18 15 18 12 11
19 18 19 19 19 18 18 18 18 19 19 20 20 19 18 19 20 21 22 23 23 21 20 18 18 17 18 17 15 11 11 8 5 5 4 2 1 3 6 9 10 11 10 12 12 10 10 10 10 10 9 9 11 12 14 16 15 13 19 22 24 21 22 21 21 22 22 22 24 21 21 18 14 18 17 20 22 17 17 21 13 14 18 19 19 18 15 13
19 19 18 19 19 18 18 18 19 19 19 19 19 19 19 18 19 20 22 23 23 22 21 19 17 16 18 14 14 10 7 4 3 5 3 2 3 6 6 9 11 11 11 12 11 9 8 9 9 9 9 10 12 13 12 16 16 16 19 23 23 23 22 20 22 19 22 22 23 23 20 17 20 18 13 20 23 13 14 22 13 11 13 19 17 16 16 18
19 19 19 19 19 19 19 19 19 19 19 19 19 19 19 19 20 21 22 23 23 22 21 19 17 17 16 16 13 9 7 5 3 5 7 5 6 7 11 11 11 12 13 13 11 9 8 10 9 10 10 11 13 14 15 15 17 19 17 18 24 25 24 21 23 25 24 24 24 22 19 21 21 24 17 19 18 20 18 15 22 14 14 13 13 15 14 14
19 19 19 19 19 19 19 19 20 19 19 18 18 18 18 19 20 21 22 23 23 22 20 18 16 16 13 12 8 7 9 5 5 7 10 6 11 11 13 10 10 9 10 10 9 8 7 9 9 8 10 11 9 13 12 16 19 19 18 21 22 20 21 23 23 22 24 27 25 24 24 26 25 21 18 21 19 18 17 16 18 15 15 14 17 15 14 11
19 19 19 20 20 20 20 20 20 20 19 19 18 18 19 19 20 21 21 22 22 21 19 17 15 14 11 8 7 9 5 5 3 3 5 6 4 6 6 9 9 9 7 8 7 8 5 7 9 8 9 11 10 14 14 14 11 16 21 20 18 19 22 23 18 18 21 16 20 25 27 25 23 26 26 23 22 19 19 21 21 17 17 16 15 15 13 14
20 20 20 21 20 21 21 21 20 20 20 19 19 18 18 19 19 20 21 22 21 20 18 15 15 12 12 7 8 7 5 7 3 2 3 5 4 6 8 8 6 7 9 8 5 6 8 6 10 11 9 11 12 14 12 15 13 15 16 16 19 19 18 17 21 20 22 24 22 24 27 28 26 20 16 18 22 23 21 23 22 17 19 18 15 13 11 11
20 20 20 20 21 21 21 21 21 20 20 19 19 19 19 19 19 20 20 20 20 18 17 15 12 12 8 8 9 4 1 7 3 4 4 4 6 6 6 6 6 7 7 8 7 6 9 8 8 6 7 7 10 14 13 13 16 17 17 19 21 20 19 18 16 19 18 16 13 20 28 27 22 20 19 18 15 22 26 24 21 21 18 16 16 13 15 13
21 21 21 21 21 22 21 22 22 21 20 20 20 19 19 18 19 19 19 18 19 17 15 13 11 7 9 10 6 6 5 5 3 4 4 4 6 4 2 4 5 7 7 9 10 4 1 8 8 6 7 11 10 10 11 9 14 17 16 17 19 20 20 19 17 17 18 15 18 19 21 19 17 24 25 19 19 13 22 26 24 21 18 16 16 17 15 16
21 21 21 22 22 22 23 22 22 22 21 21 20 20 19 18 18 19 17 16 14 13 11 10 8 6 8 7 6 4 4 2 3 2 6 3 7 5 1 1 5 4 6 8 9 9 6 3 6 9 9 10 10 9 11 18 14 13 12 13 16 15 17 17 15 19 20 17 17 11 15 14 22 26 27 15 16 18 20 25 24 20 18 13 21 17 15 12
21 21 22 21 23 23 23 23 23 22 22 21 21 20 19 19 18 17 16 14 15 15 13 10 7 8 6 5 5 1 4 3 5 8 3 6 9 2 5 6 4 4 3 7 7 7 9 5 6 10 8 11 9 9 13 11 12 13 14 12 12 13 15 16 15 18 22 16 18 14 16 15 21 26 24 17 18 22 23 21 23 21 17 4 16 18 17 16
21 21 22 22 23 23 23 24 23 23 22 22 21 20 19 19 18 16 14 12 13 14 13 9 8 6 5 3 2 5 1 6 4 5 6 4 6 9 2 1 7 3 3 6 7 6 7 8 9 9 8 9 11 12 11 10 10 12 11 12 12 15 14 16 16 20 22 16 23 18 17 17 18 20 22 23 20 19 19 17 16 20 18 8 14 10 8 5
21 21 21 23 23 24 23 23 24 23 23 22 21 21 20 17 16 13 11 11 12 9 8 8 8 8 9 3 4 7 7 6 6 8 4 5 4 8 8 7 8 9 5 7 4 4 6 6 8 8 10 10 11 9 10 9 9 11 13 13 14 14 14 15 18 20 22 19 21 25 18 19 21 20 19 18 27 21 17 15 16 10 12 15 14 12 8 7
22 22 22 22 23 23 23 23 24 25 23 22 21 22 20 16 14 9 9 8 7 7 6 6 7 6 6 6 5 5 7 8 4 7 8 6 7 7 7 8 7 9 7 7 6 5 6 8 5 9 10 8 6 8 9 9 10 10 10 12 14 17 15 15 14 17 20 21 18 24 23 25 18 18 23 23 20 22 21 19 16 18 13 12 12 7 9 9
22 22 23 23 23 23 23 24 25 25 23 22 21 23 19 19 7 8 11 7 6 7 7 9 7 7 8 8 4 9 8 9 9 9 7 6 5 6 8 7 7 9 10 11 9 9 6 8 6 7 6 8 9 7 7 9 9 10 10 11 14 16 18 17 14 12 17 22 24 22 26 26 25 24 24 20 23 24 22 18 19 21 22 16 14 18 15 13
22 22 23 23 22 23 23 24 25 25 23 25 24 23 11 4 3 7 8 3 4 4 4 4 5 4 8 7 3 8 8 11 9 7 6 5 3 5 6 6 7 8 8 8 6 9 7 7 7 7 8 6 6 9 9 12 15 14 15 16 17 15 14 15 16 17 23 19 19 24 21 23 25 25 24 20 15 23 28 22 15 20 25 22 16 16 19 20
22 23 23 24 22 23 23 23 24 24 22 19 15 9 4 3 3 4 3 8 11 6 6 7 5 6 8 5 10 8 11 7 9 6 5 3 4 6 8 8 9 9 9 8 4 12 4 8 8 8 8 9 11 13 11 14 12 12 13 13 14 17 19 20 23 20 20 20 20 21 23 25 23 24 22 20 21 22 20 25 25 21 20 22 21 17 16 18
23 23 23 23 23 22 22 23 23 24 20 15 15 9 8 10 10 6 12 11 8 4 6 4 4 7 6 8 6 9 10 6 2 2 2 4 7 7 6 8 8 8 10 11 11 7 5 7 10 12 13 12 13 13 13 14 12 14 14 15 14 16 15 18 22 21 15 16 17 20 22 23 26 23 20 20 24 26 25 22 24 25 21 17 20 20 18 10
24 24 24 23 23 22 22 22 23 23 22 11 7 9 7 9 6 5 5 6 7 5 3 5 4 7 4 3 5 4 8 10 8 5 4 5 6 6 2 7 7 9 9 11 10 8 10 10 11 13 10 9 7 6 10 11 13 14 13 12 13 13 15 20 22 22 19 18 18 22 21 18 14 15 16 20 20 16 21 22 18 21 24 16 18 22 19 17
25 25 24 24 22 22 21 22 20 20 10 8 8 9 8 8 6 5 6 8 11 11 8 5 5 6 2 3 2 7 8 6 8 5 4 5 8 8 9 9 9 10 11 10 10 9 10 9 6 6 8 8 12 12 11 12 13 12 10 10 11 13 13 12 14 21 18 14 15 14 16 14 15 13 17 16 18 19 15 22 23 14 16 22 19 18 20 19
25 25 25 23 23 21 21 22 22 14 6 6 8 10 7 6 7 7 8 6 7 8 7 3 3 6 3 7 6 8 6 5 7 5 2 3 7 9 8 8 11 9 10 11 12 11 12 14 15 15 13 12 9 10 12 11 11 11 13 12 12 13 15 15 13 17 19 18 18 19 16 14 15 16 14 15 19 19 21 23 23 22 20 18 17 17 16 22
26 25 24 24 23 23 20 22 9 4 9 6 8 10 8 6 6 8 6 5 5 5 8 7 4 2 6 2 5 5 5 8 7 7 7 5 8 7 8 9 8 8 10 9 11 13 12 10 10 12 11 11 13 11 11 11 10 10 13 15 15 17 17 17 17 18 13 15 15 15 13 16 16 19 17 15 15 21 18 18 20 22 23 22 20 16 12 18
26 25 24 22 23 23 23 7 5 10 10 8 7 9 9 9 7 6 5 4 3 4 10 3 1 3 4 2 4 5 11 9 1 5 3 6 7 8 7 8 5 10 10 9 9 8 10 13 14 12 12 13 13 12 12 11 11 11 10 13 15 15 16 16 17 15 13 14 13 17 16 13 14 20 19 18 21 20 18 22 21 22 20 23 18 14 12 8
25 24 23 22 20 21 10 5 11 13 6 6 9 8 8 6 7 4 4 3 1 3 7 8 4 5 4 3 7 6 7 6 8 8 6 11 4 6 8 8 7 8 7 6 5 8 8 10 8 9 11 11 10 10 10 11 11 12 10 13 15 18 19 18 16 14 14 15 19 19 14 14 14 13 15 20 22 20 22 23 25 19 24 23 19 15 11 11
24 23 22 21 19 10 5 8 11 7 6 8 7 8 8 6 5 3 3 2 5 5 1 4 6 3 5 6 9 8 9 8 8 5 8 8 10 6 8 8 10 13 13 8 11 7 12 13 11 12 12 11 11 11 11 10 11 10 12 14 14 16 18 17 15 13 12 13 15 16 18 15 13 12 15 19 20 18 22 23 20 23 19 23 25 19 13 12
24 22 20 20 20 18 7 6 8 9 7 8 6 9 6 5 5 4 2 2 4 2 3 3 3 4 8 9 8 8 7 3 6 5 5 8 10 10 7 8 11 13 14 12 12 12 10 12 15 15 10 10 11 11 11 12 13 12 13 14 14 14 16 16 14 13 12 13 14 16 17 14 14 13 13 16 18 18 20 22 22 20 19 16 13 21 24 18
25 21 19 17 14 7 5 5 8 7 7 8 7 8 9 6 3 4 1 3 5 3 8 9 7 13 12 12 9 8 8 5 7 5 9 8 4 8 9 8 10 11 11 10 12 12 14 14 15 12 11 12 12 14 13 13 13 13 14 16 14 14 13 12 12 13 12 11 14 18 20 18 15 13 16 15 13 16 14 17 19 21 19 19 17 8 7 12
22 21 16 13 6 7 9 5 4 8 7 7 9 10 5 5 3 3 6 6 7 5 10 9 13 13 13 11 10 8 8 8 4 7 8 6 4 5 11 5 5 9 10 10 9 11 9 9 9 6 11 11 12 14 12 12 13 13 10 11 11 12 11 11 11 12 12 13 15 18 19 21 19 13 15 16 19 20 18 18 21 23 25 21 17 18 17 16
22 19 16 7 7 8 6 7 10 8 8 9 9 9 5 5 7 6 5 10 7 9 10 11 11 11 12 11 7 9 8 7 7 9 8 7 8 0 4 4 5 8 8 7 8 11 11 6 6 10 8 15 13 11 9 10 10 10 11 10 11 9 6 7 8 9 12 13 13 17 19 18 19 16 16 19 19 22 19 13 14 18 26 22 21 19 16 15
22 17 18 11 9 6 9 6 7 6 8 10 8 5 5 4 5 7 7 10 4 10 9 10 13 14 14 13 7 11 11 9 10 9 11 8 8 7 15 12 8 7 8 8 12 10 7 9 8 8 8 7 6 8 7 10 5 6 9 9 10 9 7 10 9 8 10 13 16 18 18 17 14 15 21 23 22 19 16 15 18 20 13 21 22 20 19 20
23 17 8 6 8 8 7 8 6 6 9 8 6 6 6 4 4 9 9 9 10 10 11 11 15 19 5 7 8 10 8 8 10 10 12 8 8 6 5 6 12 12 8 10 7 9 10 6 3 5 1 4 8 8 11 10 12 11 6 6 6 9 7 8 7 9 10 9 10 11 11 9 16 11 16 19 22 22 19 17 19 18 17 10 15 21 23 22
25 15 8 9 10 11 10 5 5 5 6 7 7 5 5 6 5 9 8 8 9 11 12 15 12 11 8 7 13 8 9 10 12 12 9 9 7 6 8 8 9 10 9 8 6 8 11 9 5 3 10 13 12 10 9 12 14 12 11 8 8 9 6 7 8 9 8 8 8 9 7 9 12 16 17 16 17 20 20 19 16 15 15 16 14 12 14 17
14 6 6 7 7 2 5 3 1 5 6 7 7 4 6 7 3 8 5 8 9 10 14 14 7 9 7 7 8 11 12 11 11 11 8 9 6 3 8 7 8 11 8 8 9 8 9 4 6 14 13 10 7 11 9 8 7 3 5 6 5 8 4 4 9 14 12 7 12 7 11 11 12 17 19 20 19 20 21 20 19 16 13 9 11 11 5 9
6 7 6 3 6 3 3 4 2 4 6 7 6 5 6 5 8 7 7 10 10 11 10 7 5 8 8 7 9 13 12 12 9 11 7 10 3 6 8 6 7 9 10 9 9 4 8 13 15 12 12 9 15 14 14 11 11 11 11 9 10 8 7 7 8 4 4 5 9 10 13 12 10 8 10 15 19 18 18 20 22 18 15 13 8 4 7 10
8 6 9 9 6 4 3 3 2 3 5 8 1 1 8 7 8 8 7 9 9 8 9 5 6 9 9 9 8 13 11 10 11 10 10 7 6 5 11 6 5 8 11 8 5 5 9 12 7 9 10 8 10 11 14 14 13 15 14 10 8 3 3 1 3 6 6 6 6 10 15 13 11 10 10 14 14 18 16 15 17 19 19 17 12 12 10 13
8 7 3 4 5 5 5 2 3 7 5 7 7 3 8 6 8 9 7 7 6 8 4 7 8 8 10 7 11 11 11 9 11 8 7 6 7 10 10 4 6 12 11 9 6 6 6 6 9 6 9 14 14 8 10 8 6 12 14 13 10 7 8 6 4 8 2 6 5 9 13 10 9 10 12 13 14 13 15 13 12 13 13 12 12 16 15 14
5 5 2 5 6 5 5 4 5 6 7 6 5 5 6 7 10 9 6 7 6 5 3 9 8 7 8 9 11 10 10 12 10 9 7 6 9 10 5 5 9 11 11 11 7 4 5 2 9 9 13 12 8 3 8 8 10 8 6 9 7 4 5 7 7 8 7 6 6 7 9 9 8 10 14 13 11 12 10 11 10 11 15 15 18 12 15 15
5 5 1 4 5 5 6 5 7 5 8 7 9 7 7 6 9 8 10 2 4 4 7 10 8 4 7 10 7 11 9 10 10 9 8 8 7 7 3 11 11 12 10 11 8 2 2 5 9 14 13 8 10 10 12 15 12 10 10 11 7 5 7 7 8 6 9 6 5 5 9 11 8 5 12 13 9 10 12 10 11 9 11 11 17 15 8 9
4 4 4 3 5 7 7 7 4 6 6 8 7 5 1 3 7 9 10 5 4 5 4 7 9 8 8 9 11 10 9 10 11 11 7 9 10 8 9 13 11 10 9 8 9 3 4 5 9 12 11 13 16 17 14 15 15 13 11 12 11 8 8 9 9 6 7 7 8 10 10 14 11 11 13 14 14 14 14 14 11 12 12 14 13 11 13 11
5 5 3 1 3 6 7 6 7 6 7 11 11 6 11 4 4 6 10 8 9 3 5 6 10 10 8 9 10 9 11 9 11 8 12 12 11 9 12 13 7 11 8 7 8 2 2 2 8 13 13 16 17 6 7 11 11 11 10 13 11 9 8 9 9 7 8 8 6 5 9 12 7 5 7 10 12 12 10 12 14 9 11 13 16 14 13 9
6 7 1 3 7 5 5 5 6 6 7 9 10 8 6 9 6 5 6 9 7 6 8 8 9 9 11 10 10 11 10 7 3 11 11 11 10 12 12 8 11 10 6 4 5 4 2 1 3 11 11 7 5 2 4 3 9 6 8 8 14 14 12 10 10 9 10 10 12 9 11 8 6 4 5 9 11 13 12 10 11 11 9 10 13 14 14 13
9 7 5 1 2 3 6 6 7 6 9 10 10 9 11 7 9 2 4 7 6 4 7 7 9 11 10 9 11 11 10 9 10 8 11 12 11 11 9 11 11 9 2 5 1 3 3 4 3 8 9 12 12 12 9 10 5 8 10 14 15 15 16 11 8 7 9 10 14 10 9 10 10 14 12 7 7 11 13 13 12 9 9 11 11 12 11 10
5 4 6 8 8 6 7 9 8 9 7 8 7 8 9 11 10 8 6 9 1 2 5 7 9 10 9 11 11 11 12 10 10 9 10 10 10 8 11 14 11 7 5 2 2 4 3 4 5 8 8 9 11 9 9 5 6 9 15 16 16 15 16 15 12 9 9 8 10 11 13 13 15 15 15 11 4 10 13 12 9 9 8 9 9 9 7 9
5 5 4 5 9 4 8 8 9 7 6 9 6 8 9 11 11 5 4 8 5 7 7 4 5 9 10 11 12 13 12 13 12 12 11 13 11 12 15 14 6 5 5 2 3 1 4 5 7 8 12 14 16 15 18 16 13 16 17 17 15 13 13 16 9 11 9 10 12 9 12 13 12 12 14 15 12 10 12 13 14 12 9 9 10 6 8 10
4 3 4 3 2 6 7 5 7 7 8 8 7 10 11 13 11 9 10 6 11 9 8 2 5 7 12 13 14 9 12 13 12 10 13 12 14 13 14 12 9 6 1 3 4 2 3 4 8 7 12 11 14 17 19 17 13 15 16 16 16 15 13 14 14 15 14 11 13 13 14 15 14 12 11 15 12 10 11 13 12 11 15 17 12 10 12 12
5 6 3 2 3 6 6 4 6 8 9 5 7 10 12 12 13 12 13 11 5 9 9 6 10 13 14 13 11 10 12 11 9 13 11 13 15 14 11 11 4 2 3 4 3 3 1 6 9 11 16 17 15 13 11 12 11 11 10 11 10 14 14 13 15 16 15 16 17 17 17 18 15 15 15 14 13 13 12 12 12 12 14 16 14 11 14 14
5 5 5 8 9 6 4 4 6 9 8 5 5 9 11 12 14 14 14 15 11 11 9 11 13 12 12 12 11 10 12 11 13 14 13 15 16 9 10 10 8 8 10 10 7 3 1 5 6 12 10 13 9 5 6 9 11 10 11 14 15 13 13 11 12 12 15 16 16 17 19 18 13 10 12 14 14 13 12 13 13 11 10 12 14 12 14 15
6 5 3 7 8 6 7 7 6 7 6 5 6 10 12 14 14 14 14 15 9 10 11 15 15 14 11 13 12 9 12 13 15 17 17 14 13 12 9 7 7 11 13 11 7 4 4 8 8 9 9 11 8 11 11 12 9 4 11 18 17 16 13 10 9 11 13 14 16 17 15 12 10 9 14 14 13 10 11 14 13 13 16 17 15 15 15 9
6 4 2 4 5 8 10 7 7 7 4 6 5 9 10 16 14 14 11 11 13 13 13 15 15 12 13 12 12 12 14 15 18 19 17 16 15 14 13 15 12 10 10 10 9 9 7 7 7 7 9 8 12 12 15 15 7 2 11 14 15 14 14 16 14 13 11 12 13 11 13 12 16 17 18 17 15 15 8 7 5 8 15 18 20 17 14 12
Wind_Direction
350 348 347 345 343 342 342 340 340 339 337 337 335 334 331 330 328 327 326 326 324 326 326 325 325 324 320 321 323 320 323 311 306 294 298 49 296 351 326 322 322 318 318 305 288 275 271 249 236 225 234 228 222 231 233 233 234 232 220 226 236 233 234 231 227 231 236 241 241 249 255 262 264 262 269 254 239 258 264 223 152 119 126 134 138 143 146 155
349 347 345 344 343 341 341 340 338 337 336 335 335 333 331 329 327 325 325 323 323 323 325 325 324 322 320 319 321 320 318 309 295 292 60 38 9 4 353 336 323 311 315 294 294 298 296 282 268 233 217 230 215 233 213 230 226 228 236 231 235 234 240 236 234 233 232 232 238 241 239 245 256 267 259 263 263 248 247 233 141 134 135 141 139 132 149 157
348 346 345 343 342 341 340 338 336 335 334 334 332 333 331 327 327 325 322 322 321 321 322 324 322 321 316 319 318 317 312 303 291 277 83 62 21 360 352 317 308 301 296 297 303 307 296 309 305 306 273 245 212 230 214 228 223 228 238 238 238 235 243 243 245 250 237 234 242 245 237 237 244 250 259 252 252 261 258 175 156 146 138 154 153 143 148 157
346 346 344 341 341 341 339 337 336 334 333 332 332 330 328 326 323 324 321 320 320 320 321 322 323 320 316 313 323 315 299 293 283 86 81 57 37 331 302 303 289 291 287 278 280 280 286 282 279 273 274 260 261 247 235 218 229 223 234 238 244 239 240 242 247 252 256 256 248 239 240 232 232 246 248 247 245 244 259 259 169 163 149 151 143 137 146 146
346 346 344 342 340 339 338 336 333 332 332 330 328 326 325 323 320 319 318 317 318 319 320 321 323 319 312 315 310 303 304 280 91 92 93 202 225 288 277 278 281 285 290 292 292 272 259 263 269 251 240 254 247 249 247 247 225 239 240 243 245 249 254 253 248 246 255 260 266 266 260 253 255 222 227 250 240 226 239 249 199 181 151 151 144 144 139 130
346 344 343 342 341 337 336 334 333 332 330 328 325 324 323 320 318 316 315 314 315 317 318 319 323 322 313 315 304 290 283 5 82 98 155 198 209 242 266 266 273 281 282 282 284 286 279 261 249 249 248 245 248 249 243 241 244 242 236 248 250 247 250 253 258 255 247 247 257 259 250 263 255 268 244 233 241 233 240 258 250 172 172 167 151 141 144 149
344 343 342 340 337 336 334 333 332 329 328 327 324 321 320 318 316 314 313 311 310 313 315 318 321 322 319 304 277 258 258 62 88 133 163 217 202 217 242 253 250 263 272 279 270 276 259 268 266 264 263 258 248 248 254 261 241 245 256 244 241 251 253 250 254 263 268 263 251 253 261 251 248 258 263 251 240 233 229 242 252 179 172 149 136 152 144 149
344 343 342 340 337 335 334 332 330 327 325 324 321 318 317 315 312 310 310 308 308 308 311 315 318 318 332 324 304 224 228 52 48 129 166 206 221 213 227 246 258 265 272 273 298 288 313 288 280 292 273 268 273 265 251 240 247 256 247 250 261 256 251 249 251 250 254 262 267 269 250 244 247 252 255 254 256 237 224 247 259 165 152 167 157 156 161 149
343 342 341 340 338 335 333 331 328 325 323 321 319 316 312 311 309 307 306 305 305 305 307 312 314 317 308 286 291 306 94 19 23 3 161 202 286 318 275 266 232 234 268 281 263 268 282 276 270 255 286 285 292 296 293 288 257 243 256 265 263 254 259 266 273 271 264 256 256 260 263 265 248 240 243 246 247 252 219 217 238 179 172 161 167 169 165 159
343 343 342 340 337 335 332 329 326 324 322 319 315 314 312 308 307 304 305 303 303 302 304 309 310 319 302 274 280 269 63 293 334 360 11 323 296 279 261 257 300 296 285 274 265 260 250 303 318 322 315 291 288 272 285 281 281 304 296 280 274 275 274 257 251 255 261 250 239 246 254 250 246 242 240 225 242 246 247 222 217 193 193 170 169 168 167 170
344 343 342 339 337 334 331 328 325 323 321 317 315 313 310 307 303 304 302 301 300 300 300 302 312 311 302 295 295 12 289 284 21 313 351 298 278 271 323 336 327 288 280 290 277 280 321 310 307 314 294 260 272 270 267 272 282 274 281 285 283 286 287 287 299 295 290 278 298 280 256 252 266 262 251 241 207 238 247 246 230 218 206 169 161 167 172 169
343 342 341 339 336 333 331 328 325 322 320 317 314 311 309 306 303 301 301 299 296 295 294 293 305 295 281 286 282 51 346 307 358 321 302 266 284 298 264 267 268 276 294 295 299 321 233 300 322 293 285 340 282 317 272 278 269 274 279 278 279 275 268 257 262 269 281 286 280 298 297 256 252 244 242 245 264 218 233 251 251 217 222 168 173 173 175 177
343 342 339 339 336 333 330 327 324 321 320 317 314 309 307 305 302 300 299 298 290 290 304 311 301 281 296 295 84 62 326 312 247 269 258 310 301 224 249 300 256 270 280 291 287 301 341 311 284 280 275 274 290 275 325 310 296 300 283 277 280 276 270 267 269 265 263 262 265 271 254 246 247 247 240 240 240 255 227 237 250 244 218 199 170 174 174 177
343 341 340 338 336 333 330 327 323 319 318 316 311 309 305 303 301 297 293 286 286 289 288 288 292 280 281 293 104 115 220 200 224 245 12 301 295 46 282 206 230 252 241 256 275 279 278 271 261 270 282 277 278 304 274 271 273 259 269 263 257 260 257 254 244 251 248 253 254 254 262 245 237 237 240 245 248 251 239 218 225 250 255 214 179 174 177 166
343 341 340 337 336 333 330 326 321 318 316 313 311 307 302 297 298 295 290 286 270 266 271 284 251 260 247 143 137 169 193 311 245 34 304 330 314 290 189 16 292 284 294 307 286 250 249 255 274 272 265 253 248 253 266 258 252 261 266 251 252 255 260 259 251 236 241 233 244 240 250 251 246 244 238 243 245 264 230 223 209 207 238 235 166 190 164 161
342 341 339 337 334 333 329 325 320 317 315 312 309 305 298 293 293 295 286 274 291 321 272 263 234 231 298 285 98 118 203 250 11 330 286 255 292 297 347 298 288 262 249 251 201 273 259 281 263 278 274 270 270 268 273 277 260 245 246 258 259 256 259 258 240 247 240 238 232 226 242 241 242 244 248 237 256 247 242 242 250 252 219 224 165 169 138 128
342 340 338 336 334 331 330 325 320 316 315 312 310 301 297 287 285 277 286 284 264 240 248 272 311 209 281 60 189 213 8 338 1 311 327 317 282 284 303 297 287 304 212 224 247 264 255 243 239 246 238 261 291 288 287 275 275 264 247 251 246 252 258 259 271 244 234 231 232 225 230 239 244 233 240 245 253 254 242 216 239 255 257 225 168 153 156 176
342 340 338 335 334 332 328 325 318 317 316 315 308 297 289 290 284 290 253 222 242 241 242 257 282 296 211 262 3 342 349 327 332 321 292 292 320 302 280 277 299 284 275 271 212 256 210 242 212 268 279 235 224 240 252 275 282 282 273 258 254 251 248 259 258 257 236 220 234 231 233 239 232 238 242 230 240 261 257 249 219 239 251 244 216 179 179 187
341 339 337 336 333 332 328 322 319 317 320 318 302 281 275 218 241 248 271 219 222 206 216 155 238 313 355 346 24 351 346 322 304 262 266 223 235 246 269 278 275 281 271 252 198 230 190 246 253 252 258 251 268 281 274 275 281 286 291 292 291 291 271 250 231 237 271 263 237 231 238 235 234 231 233 238 239 232 247 262 257 232 233 239 235 215 204 186
341 339 336 335 333 331 327 322 318 317 324 327 322 311 194 308 221 174 244 256 248 304 342 331 341 318 287 355 349 347 323 282 278 161 291 134 281 287 271 269 260 243 275 273 209 204 253 243 249 258 263 257 249 249 296 316 318 308 294 285 288 286 281 289 301 286 230 249 256 259 238 235 239 233 226 226 233 247 232 236 246 247 236 221 227 230 213 207
339 338 336 333 333 329 326 321 319 315 324 312 301 328 33 3 351 12 337 300 304 6 314 332 336 333 329 329 299 333 343 315 288 229 280 48 276 274 251 239 238 262 229 260 276 144 174 265 264 262 266 281 292 302 301 295 298 296 295 289 284 283 280 284 286 290 300 293 276 260 266 254 225 228 237 226 218 230 241 232 232 242 243 222 215 223 227 214
339 337 335 333 329 329 323 323 317 318 317 292 295 24 26 26 352 344 331 306 308 275 206 286 312 270 236 287 39 21 285 286 282 154 115 320 318 279 191 216 262 271 287 211 221 253 262 254 253 255 272 316 318 316 308 296 287 279 278 284 282 275 278 280 277 285 290 282 273 242 244 260 254 257 239 240 251 229 228 244 236 227 239 246 216 213 217 227
339 337 334 330 329 325 325 317 318 310 314 310 36 12 23 351 340 340 290 292 272 255 254 236 287 329 30 5 98 301 290 315 342 252 136 340 301 259 293 287 286 294 290 290 272 265 264 262 274 2 320 274 270 274 279 284 282 281 285 282 275 279 277 271 266 274 269 276 289 284 273 270 248 251 263 261 257 248 235 233 250 256 246 244 244 218 204 218
338 335 333 329 327 326 322 321 310 293 253 301 42 25 349 354 330 335 311 270 298 204 231 103 267 282 119 327 19 304 271 13 312 27 115 274 298 343 303 274 283 278 270 278 278 277 277 287 311 301 294 290 284 281 279 285 282 264 251 257 268 278 281 277 279 276 282 268 263 276 283 282 266 252 258 250 255 258 250 228 227 248 252 258 249 244 206 205
336 335 331 328 326 323 321 322 298 345 318 307 37 10 343 351 341 10 308 266 228 225 178 193 255 224 12 291 221 253 312 311 269 274 44 303 319 312 290 311 293 272 273 274 287 281 271 269 276 274 271 277 262 244 252 264 272 276 274 269 283 291 279 276 276 277 269 266 263 256 249 250 259 261 252 253 246 248 251 272 240 221 248 241 244 237 227 211
335 333 330 325 324 324 311 294 8 333 303 57 357 350 350 337 16 352 301 268 139 77 169 220 193 112 298 296 261 322 316 286 96 290 329 336 326 281 300 273 235 274 279 288 297 300 294 298 298 293 293 288 288 285 283 278 275 278 277 295 288 277 277 275 273 271 265 270 253 251 267 263 238 238 233 253 257 252 269 265 263 231 220 239 236 246 233 242
334 331 327 322 322 331 320 9 325 300 349 16 358 337 336 326 360 325 269 220 164 16 349 106 245 89 247 314 267 310 271 13 325 260 208 146 269 65 308 297 293 295 311 320 280 259 262 246 253 274 268 263 259 262 263 263 266 266 280 278 287 285 284 278 278 271 273 268 274 269 253 257 259 249 250 233 223 246 253 256 258 262 215 223 236 229 229 238
331 329 325 320 316 330 301 301 306 345 6 352 333 331 322 16 318 305 264 271 53 280 6 338 60 94 255 294 326 313 312 296 286 96 257 178 179 204 213 275 293 299 302 301 277 288 296 298 287 283 286 281 280 288 291 282 275 282 291 291 284 293 292 288 276 273 276 286 268 252 264 266 249 253 248 258 245 238 255 256 259 256 257 206 219 241 247 235
328 326 325 320 317 296 260 255 294 328 347 330 354 317 335 326 267 311 274 69 37 334 151 164 137 219 302 333 333 323 302 235 294 8 338 299 266 295 274 300 316 311 304 291 285 289 288 298 302 298 284 276 281 283 280 275 275 276 277 269 275 267 258 265 268 270 264 256 263 262 249 252 252 238 253 243 243 235 229 244 252 262 250 263 221 212 220 232
328 325 323 323 315 255 199 225 251 318 334 338 335 312 301 264 264 241 294 28 339 56 331 1 347 345 327 341 338 334 317 344 313 321 288 298 302 181 250 292 286 293 288 277 268 282 288 276 286 282 276 285 294 294 297 295 290 302 292 285 276 270 276 272 273 273 272 256 253 254 261 259 256 235 235 249 246 232 223 219 238 248 257 237 243 258 271 255
324 323 319 321 290 339 315 277 33 357 336 338 327 303 291 271 270 340 27 21 290 36 316 13 341 327 342 323 352 323 316 359 312 338 314 307 4 79 7 293 291 264 262 260 261 286 278 296 279 261 289 284 284 282 264 272 279 281 275 275 287 278 263 261 262 260 258 258 258 256 251 258 255 241 248 245 253 260 229 221 214 227 243 257 240 218 236 263
325 317 313 303 281 316 296 325 342 339 333 324 309 301 277 286 178 13 329 0 309 354 348 340 338 327 312 331 303 357 349 323 10 328 347 335 309 252 206 269 285 322 309 337 327 318 293 266 306 273 243 257 261 265 279 267 254 250 266 268 262 271 270 263 244 242 241 250 252 248 244 250 246 260 259 247 244 250 255 245 252 224 219 236 248 249 248 239
321 315 305 275 256 254 259 307 325 323 320 304 303 285 293 299 19 13 339 356 32 354 351 333 325 311 295 295 357 12 350 333 355 334 335 315 310 8 14 334 7 307 317 327 313 315 305 313 315 344 2 10 316 284 284 282 283 299 288 280 258 257 258 253 250 258 265 258 258 264 256 250 261 245 234 251 257 264 251 236 251 264 238 210 219 225 232 230
317 314 297 254 239 248 281 285 284 323 319 313 275 297 240 345 4 29 343 15 338 346 330 342 317 300 323 355 6 17 339 347 336 346 324 347 337 355 342 337 357 336 332 330 319 337 318 321 54 327 268 50 299 296 297 293 292 286 231 253 289 290 277 275 258 256 265 278 289 303 317 277 252 233 245 237 246 254 257 229 221 233 253 249 218 213 218 227
311 294 263 265 251 248 254 282 295 320 301 303 307 280 349 8 356 5 350 354 339 333 331 329 314 332 15 322 11 358 13 331 349 334 343 340 346 360 352 358 14 358 354 330 4 320 310 305 315 72 321 305 300 294 277 280 283 268 280 279 226 247 117 255 300 319 310 312 302 276 259 288 289 304 288 260 237 239 251 258 249 229 220 231 238 236 228 217
304 265 214 257 268 355 272 300 346 295 299 306 311 16 17 12 350 353 8 346 335 337 322 321 356 348 355 350 344 339 14 345 342 339 343 344 33 22 351 23 3 12 359 342 337 314 320 275 14 324 318 329 312 296 287 293 279 333 298 259 276 86 154 262 258 258 273 274 262 265 270 265 282 271 277 272 241 227 225 234 254 264 265 234 230 235 300 284
301 291 237 275 307 346 353 282 14 308 292 293 310 19 22 12 42 343 7 343 338 323 324 325 9 337 350 354 326 355 349 335 352 346 341 341 353 12 6 8 20 3 11 346 320 322 317 299 306 292 321 6 360 336 302 277 270 278 264 269 289 225 277 276 288 289 242 256 270 272 260 266 255 263 273 264 258 255 234 218 215 229 240 247 252 269 273 289
309 303 284 272 297 334 303 10 293 291 285 293 39 225 39 347 32 15 345 344 332 337 316 324 346 333 353 334 340 345 346 333 355 335 334 354 339 7 339 347 16 355 352 3 316 334 337 300 305 320 319 338 325 311 295 274 262 263 269 281 266 260 289 357 313 261 265 252 279 268 265 260 258 266 274 290 286 260 246 232 236 231 228 233 236 251 265 276
283 289 309 57 305 5 316 26 294 264 291 296 21 313 20 338 20 11 355 344 340 314 318 350 333 358 334 337 334 325 341 342 341 338 331 9 327 10 354 358 327 341 340 339 310 316 318 295 299 292 308 328 311 305 295 306 277 269 268 258 256 267 274 254 220 288 285 278 288 282 274 260 246 255 258 265 276 286 249 231 227 240 252 255 243 226 240 256
266 274 102 316 6 323 360 274 280 266 247 357 4 12 346 358 1 336 357 1 343 338 334 335 348 324 341 328 319 334 348 336 336 322 314 328 315 339 20 1 335 327 330 324 299 320 287 286 284 289 300 301 295 324 299 303 306 309 283 256 247 265 317 261 263 248 259 274 258 285 290 273 258 264 271 255 248 284 297 269 252 241 237 253 272 256 205 225
292 278 31 330 10 342 290 275 262 331 352 18 12 12 6 13 323 323 345 26 310 223 294 327 342 333 309 314 325 356 330 331 324 324 323 321 347 339 16 327 327 318 322 315 307 21 267 253 273 299 305 292 282 293 305 296 286 279 282 278 272 254 250 238 251 268 258 239 253 276 275 279 282 263 261 277 305 293 266 267 275 285 326 252 230 261 268 210
294 308 74 24 354 311 324 304 21 360 8 15 357 298 328 302 293 344 330 343 243 293 336 299 272 295 316 333 354 335 328 323 323 316 328 327 327 318 310 311 325 324 322 311 309 358 276 288 280 287 282 284 285 286 294 293 278 266 270 276 275 249 267 282 284 261 254 248 286 278 282 269 263 279 290 297 296 301 317 316 319 347 330 346 332 282 245 235
277 353 148 74 268 313 296 2 14 359 21 1 337 9 30 324 270 324 334 358 333 8 303 316 343 312 350 358 329 311 316 319 321 311 321 315 312 322 318 325 351 311 322 315 308 82 87 254 278 275 281 284 280 258 321 325 310 270 257 278 275 269 266 270 273 285 269 257 231 255 261 270 292 278 290 294 292 293 300 333 326 339 340 327 318 323 330 312
331 314 287 160 296 329 17 15 2 350 3 9 340 357 349 322 19 321 337 330 342 334 334 311 298 339 337 314 301 312 335 317 334 309 307 315 310 332 318 351 310 306 307 307 294 101 290 204 245 290 298 288 287 165 225 359 357 337 314 303 296 301 275 264 267 278 276 263 265 259 256 273 276 288 294 293 297 298 303 314 331 331 325 315 313 319 324 328
288 242 337 82 230 287 51 16 18 331 12 7 339 6 337 352 346 196 159 322 317 310 332 327 336 316 308 317 308 315 323 318 308 310 305 305 317 327 337 314 325 318 6 51 296 110 222 256 271 281 296 308 318 315 324 323 346 308 296 301 296 300 300 290 271 262 263 268 265 255 264 270 284 289 279 266 293 294 288 281 261 259 291 294 302 314 319 346
338 342 6 337 346 332 77 56 16 344 359 350 331 357 332 329 347 38 47 339 9 318 297 304 313 328 321 325 324 321 319 317 313 319 307 312 327 328 325 327 328 30 38 105 290 160 286 286 249 260 266 276 270 277 276 275 291 290 292 293 293 295 295 286 276 261 259 278 270 266 274 284 282 276 268 256 301 326 312 298 299 303 291 277 285 296 309 315
298 33 348 350 313 49 358 24 10 1 354 327 325 345 315 338 343 332 70 339 17 315 301 296 321 324 331 322 323 321 317 317 316 308 321 325 323 319 329 324 349 73 1 336 75 85 257 283 261 247 253 255 271 279 283 286 282 281 281 281 288 284 277 282 277 269 277 276 266 262 263 274 280 300 314 321 317 306 315 317 320 306 272 261 257 264 285 285
342 336 9 55 307 327 347 354 360 338 320 298 334 331 348 344 339 333 335 1 336 321 321 319 311 292 275 323 327 318 318 311 315 321 323 317 318 326 326 328 324 131 178 19 104 142 292 277 295 303 283 270 265 266 272 279 275 274 281 288 290 291 287 273 265 273 278 264 273 283 286 283 283 281 275 285 297 284 280 302 296 293 306 294 253 258 271 264
7 336 70 348 285 335 346 346 311 316 331 348 322 352 353 340 327 334 331 334 341 329 328 310 310 323 337 337 324 308 313 315 320 314 312 317 319 322 310 325 301 337 197 172 113 122 233 258 283 312 305 300 294 294 303 306 305 303 305 297 308 306 293 277 277 277 277 282 282 282 277 271 273 280 279 282 284 292 300 283 268 277 277 275 259 238 245 254
38 351 335 336 305 282 348 309 299 297 316 346 352 360 338 330 325 331 325 324 341 333 333 322 320 319 325 321 303 300 318 313 301 305 312 315 307 299 302 301 300 312 334 323 326 149 67 305 339 314 308 304 307 328 321 324 326 317 332 337 337 335 332 335 327 321 315 298 296 294 295 290 289 311 348 347 334 310 284 286 294 292 291 300 285 263 251 245
319 342 360 315 318 347 317 312 313 319 301 12 10 340 324 331 325 328 314 311 329 329 328 318 333 327 319 307 312 304 287 297 312 298 300 295 285 293 286 280 301 300 305 313 325 299 229 292 312 307 315 303 311 339 325 336 332 288 341 354 352 346 339 344 332 323 310 306 311 313 302 291 300 335 327 315 303 306 309 310 324 330 325 306 289 276 268 286
336 332 284 297 296 300 292 314 320 330 339 1 345 319 321 322 318 322 315 305 333 329 332 339 331 323 305 307 305 309 322 315 301 297 291 286 274 272 266 270 279 298 304 312 317 300 299 301 308 316 312 290 305 321 326 328 296 236 6 337 337 335 335 322 314 315 311 322 310 295 288 307 317 319 311 299 299 300 290 292 328 330 307 304 289 272 266 266